Time,TemperatureF,DewpointF,PressureIn,WindDirection,WindDirectionDegrees,WindSpeedMPH,WindSpeedGustMPH,Humidity,HourlyPrecipIn,Conditions,Clouds,dailyrainin,SoftwareType,DateUTC
2013-01-13 00:00:00,56.5,50.4,30.12,SSW,199,0.0,0.0,80,0.00,,SKC,0.00,VWS V14.01,2013-01-13 05:00:00,
2013-01-13 00:02:00,56.5,50.4,30.12,SSW,198,0.0,0.0,80,0.00,,SKC,0.00,VWS V14.01,2013-01-13 05:02:00,
2013-01-13 00:04:00,56.5,50.4,30.12,SSW,199,0.0,0.0,80,0.00,,SKC,0.00,VWS V14.01,2013-01-13 05:04:00,
2013-01-13 00:06:00,56.5,50.4,30.12,SSW,198,0.0,0.0,80,0.00,,SKC,0.00,VWS V14.01,2013-01-13 05:06:00,
2013-01-13 00:09:00,56.5,50.1,30.12,SSW,198,0.0,0.0,79,0.00,,SKC,0.00,VWS V14.01,2013-01-13 05:09:00,
2013-01-13 00:15:00,56.8,50.0,30.12,SSW,198,0.0,0.0,78,0.00,,SKC,0.00,VWS V14.01,2013-01-13 05:15:00,
2013-01-13 00:20:00,56.9,50.1,30.12,SSW,198,0.0,0.0,78,0.00,,SKC,0.00,VWS V14.01,2013-01-13 05:20:00,
2013-01-13 00:25:00,57.0,50.2,30.12,SSW,198,0.0,0.0,78,0.00,,SKC,0.00,VWS V14.01,2013-01-13 05:25:00,
2013-01-13 00:30:00,57.2,50.4,30.12,SSW,199,0.0,0.0,78,0.00,,SKC,0.00,VWS V14.01,2013-01-13 05:30:00,
2013-01-13 00:31:00,57.3,50.5,30.12,SSW,198,0.0,0.0,78,0.00,,SKC,0.00,VWS V14.01,2013-01-13 05:31:00,
2013-01-13 00:36:00,57.5,51.0,30.12,SSW,198,0.0,0.0,79,0.00,,SKC,0.00,VWS V14.01,2013-01-13 05:36:00,
2013-01-13 00:42:00,57.5,50.7,30.12,SSW,198,0.0,0.0,78,0.00,,SKC,0.00,VWS V14.01,2013-01-13 05:42:00,
2013-01-13 00:47:00,57.6,50.8,30.12,SSW,198,0.0,0.0,78,0.00,,SKC,0.00,VWS V14.01,2013-01-13 05:47:00,
2013-01-13 00:52:00,57.6,50.8,30.12,SSW,198,0.0,0.0,78,0.00,,SKC,0.00,VWS V14.01,2013-01-13 05:52:00,
2013-01-13 00:58:00,57.5,51.0,30.12,SSW,198,0.0,0.0,79,0.00,,SKC,0.00,VWS V14.01,2013-01-13 05:58:00,
2013-01-13 01:00:00,57.4,51.0,30.12,SSW,198,0.0,0.0,79,0.00,,SKC,0.00,VWS V14.01,2013-01-13 06:00:00,
2013-01-13 01:03:00,57.5,50.7,30.12,SSW,199,0.0,0.0,78,0.00,,SKC,0.00,VWS V14.01,2013-01-13 06:03:00,
2013-01-13 01:09:00,57.5,50.7,30.12,SSW,198,0.0,0.0,78,0.00,,SKC,0.00,VWS V14.01,2013-01-13 06:09:00,
2013-01-13 01:14:00,57.4,50.6,30.12,SSW,198,0.0,0.0,78,0.00,,SKC,0.00,VWS V14.01,2013-01-13 06:14:00,
2013-01-13 01:20:00,57.3,50.5,30.12,SSW,198,0.0,0.0,78,0.00,,SKC,0.00,VWS V14.01,2013-01-13 06:20:00,
2013-01-13 01:25:00,57.2,50.4,30.12,SSW,199,0.0,0.0,78,0.00,,SKC,0.00,VWS V14.01,2013-01-13 06:25:00,
2013-01-13 01:30:00,57.0,50.2,30.12,SSW,198,0.0,0.0,78,0.00,,SKC,0.00,VWS V14.01,2013-01-13 06:30:00,
2013-01-13 01:36:00,56.9,50.5,30.12,SSW,198,0.0,0.0,79,0.00,,SKC,0.00,VWS V14.01,2013-01-13 06:36:00,
2013-01-13 01:41:00,56.9,50.1,30.12,SSW,198,0.0,0.0,78,0.00,,SKC,0.00,VWS V14.01,2013-01-13 06:41:00,
2013-01-13 01:47:00,57.2,50.4,30.12,SSW,198,0.0,0.0,78,0.00,,SKC,0.00,VWS V14.01,2013-01-13 06:47:00,
2013-01-13 01:52:00,57.2,50.8,30.12,SSW,198,0.0,0.0,79,0.00,,SKC,0.00,VWS V14.01,2013-01-13 06:52:00,
2013-01-13 01:58:00,57.1,50.3,30.12,SSW,198,0.0,0.0,78,0.00,,SKC,0.00,VWS V14.01,2013-01-13 06:58:00,
2013-01-13 02:00:00,57.2,50.4,30.12,SSW,199,0.0,0.0,78,0.00,,SKC,0.00,VWS V14.01,2013-01-13 07:00:00,
2013-01-13 02:03:00,57.3,50.5,30.12,SSW,198,0.0,0.0,78,0.00,,SKC,0.00,VWS V14.01,2013-01-13 07:03:00,
2013-01-13 02:08:00,57.4,51.0,30.12,SSW,198,0.0,0.0,79,0.00,,SKC,0.00,VWS V14.01,2013-01-13 07:08:00,
2013-01-13 02:14:00,57.5,51.0,30.13,SSW,199,0.0,0.0,79,0.00,,SKC,0.00,VWS V14.01,2013-01-13 07:14:00,
2013-01-13 02:19:00,57.5,51.0,30.12,SSW,199,0.0,0.0,79,0.00,,SKC,0.00,VWS V14.01,2013-01-13 07:19:00,
2013-01-13 02:25:00,57.5,51.0,30.12,SSW,198,0.0,0.0,79,0.00,,SKC,0.00,VWS V14.01,2013-01-13 07:25:00,
2013-01-13 02:30:00,57.5,50.7,30.13,SSW,199,0.0,0.0,78,0.00,,SKC,0.00,VWS V14.01,2013-01-13 07:30:00,
2013-01-13 02:35:00,57.4,50.6,30.12,SSW,198,0.0,0.0,78,0.00,,SKC,0.00,VWS V14.01,2013-01-13 07:35:00,
2013-01-13 02:41:00,57.3,50.5,30.12,SSW,198,0.0,0.0,78,0.00,,SKC,0.00,VWS V14.01,2013-01-13 07:41:00,
2013-01-13 02:46:00,57.2,50.4,30.12,SSW,198,0.0,0.0,78,0.00,,SKC,0.00,VWS V14.01,2013-01-13 07:46:00,
2013-01-13 02:52:00,56.9,50.5,30.12,SSW,198,0.0,0.0,79,0.00,,SKC,0.00,VWS V14.01,2013-01-13 07:52:00,
2013-01-13 02:57:00,56.8,50.4,30.12,SSW,198,0.0,0.0,79,0.00,,SKC,0.00,VWS V14.01,2013-01-13 07:57:00,
2013-01-13 03:00:00,56.7,50.3,30.12,SSW,198,0.0,0.0,79,0.00,,SKC,0.00,VWS V14.01,2013-01-13 08:00:00,
2013-01-13 03:03:00,56.6,50.5,30.12,SSW,198,0.0,0.0,80,0.00,,SKC,0.00,VWS V14.01,2013-01-13 08:03:00,
2013-01-13 03:08:00,56.5,49.7,30.12,SSW,199,0.0,0.0,78,0.00,,SKC,0.00,VWS V14.01,2013-01-13 08:08:00,
2013-01-13 03:13:00,56.6,49.8,30.12,SSW,199,0.0,0.0,78,0.00,,SKC,0.00,VWS V14.01,2013-01-13 08:13:00,
2013-01-13 03:19:00,56.6,49.8,30.12,SSW,198,0.0,0.0,78,0.00,,SKC,0.00,VWS V14.01,2013-01-13 08:19:00,
2013-01-13 03:24:00,56.6,49.8,30.12,SSW,198,0.0,0.0,78,0.00,,SKC,0.00,VWS V14.01,2013-01-13 08:24:00,
2013-01-13 03:29:00,56.7,49.9,30.12,SSW,198,0.0,0.0,78,0.00,,SKC,0.00,VWS V14.01,2013-01-13 08:29:00,
2013-01-13 03:30:00,56.7,49.9,30.12,SSW,198,0.0,0.0,78,0.00,,SKC,0.00,VWS V14.01,2013-01-13 08:30:00,
2013-01-13 03:35:00,56.7,49.9,30.12,SSW,198,0.0,0.0,78,0.00,,SKC,0.00,VWS V14.01,2013-01-13 08:35:00,
2013-01-13 03:41:00,56.7,49.9,30.11,SSW,198,0.0,0.0,78,0.00,,SKC,0.00,VWS V14.01,2013-01-13 08:41:00,
2013-01-13 03:46:00,56.6,50.2,30.11,SSW,199,0.0,0.0,79,0.00,,SKC,0.00,VWS V14.01,2013-01-13 08:46:00,
2013-01-13 03:51:00,56.5,50.1,30.11,SSW,199,0.0,0.0,79,0.00,,SKC,0.00,VWS V14.01,2013-01-13 08:51:00,
2013-01-13 03:57:00,56.2,49.8,30.11,SSW,199,0.0,0.0,79,0.00,,SKC,0.00,VWS V14.01,2013-01-13 08:57:00,
2013-01-13 04:00:00,56.2,49.8,30.11,SSW,198,0.0,0.0,79,0.00,,SKC,0.00,VWS V14.01,2013-01-13 09:00:00,
2013-01-13 04:02:00,56.2,49.8,30.11,SSW,198,0.0,0.0,79,0.00,,SKC,0.00,VWS V14.01,2013-01-13 09:02:00,
2013-01-13 04:08:00,56.1,49.7,30.11,SSW,198,0.0,0.0,79,0.00,,SKC,0.00,VWS V14.01,2013-01-13 09:08:00,
2013-01-13 04:13:00,56.1,49.7,30.10,SSW,199,0.0,0.0,79,0.00,,SKC,0.00,VWS V14.01,2013-01-13 09:13:00,
2013-01-13 04:18:00,56.1,49.7,30.10,SSW,199,0.0,0.0,79,0.00,,SKC,0.00,VWS V14.01,2013-01-13 09:18:00,
2013-01-13 04:24:00,56.0,49.6,30.10,SSW,198,0.0,0.0,79,0.00,,SKC,0.00,VWS V14.01,2013-01-13 09:24:00,
2013-01-13 04:29:00,55.9,49.5,30.10,SSW,198,0.0,0.0,79,0.00,,SKC,0.00,VWS V14.01,2013-01-13 09:29:00,
2013-01-13 04:30:00,55.9,49.5,30.10,SSW,198,0.0,0.0,79,0.00,,SKC,0.00,VWS V14.01,2013-01-13 09:30:00,
2013-01-13 04:35:00,55.8,49.4,30.10,SSW,199,0.0,0.0,79,0.00,,SKC,0.00,VWS V14.01,2013-01-13 09:35:00,
2013-01-13 04:40:00,55.7,49.3,30.10,SSW,198,0.0,0.0,79,0.00,,SKC,0.00,VWS V14.01,2013-01-13 09:40:00,
2013-01-13 04:46:00,55.6,49.2,30.10,SSW,199,0.0,0.0,79,0.00,,SKC,0.00,VWS V14.01,2013-01-13 09:46:00,
2013-01-13 04:51:00,55.6,49.2,30.10,SSW,198,0.0,0.0,79,0.00,,SKC,0.00,VWS V14.01,2013-01-13 09:51:00,
2013-01-13 04:56:00,55.6,48.9,30.10,SSW,199,0.0,0.0,78,0.00,,SKC,0.00,VWS V14.01,2013-01-13 09:56:00,
2013-01-13 05:00:00,55.6,48.9,30.10,SSW,198,0.0,0.0,78,0.00,,SKC,0.00,VWS V14.01,2013-01-13 10:00:00,
2013-01-13 05:02:00,55.6,48.9,30.10,SSW,198,0.0,0.0,78,0.00,,SKC,0.00,VWS V14.01,2013-01-13 10:02:00,
2013-01-13 05:07:00,55.6,48.9,30.10,SSW,199,0.0,0.0,78,0.00,,SKC,0.00,VWS V14.01,2013-01-13 10:07:00,
2013-01-13 05:13:00,55.6,49.2,30.11,SSW,198,0.0,0.0,79,0.00,,SKC,0.00,VWS V14.01,2013-01-13 10:13:00,
2013-01-13 05:18:00,55.5,49.1,30.11,SSW,198,0.0,0.0,79,0.00,,SKC,0.00,VWS V14.01,2013-01-13 10:18:00,
2013-01-13 05:23:00,55.5,48.8,30.11,SSW,198,0.0,0.0,78,0.00,,SKC,0.00,VWS V14.01,2013-01-13 10:23:00,
2013-01-13 05:29:00,55.5,49.1,30.11,SSW,198,0.0,0.0,79,0.00,,SKC,0.00,VWS V14.01,2013-01-13 10:29:00,
2013-01-13 05:30:00,55.5,49.1,30.11,SSW,198,0.0,0.0,79,0.00,,SKC,0.00,VWS V14.01,2013-01-13 10:30:00,
2013-01-13 05:34:00,55.3,48.9,30.11,SSW,198,0.0,0.0,79,0.00,,SKC,0.00,VWS V14.01,2013-01-13 10:34:00,
2013-01-13 05:40:00,55.2,48.8,30.11,SSW,198,0.0,0.0,79,0.00,,SKC,0.00,VWS V14.01,2013-01-13 10:40:00,
2013-01-13 05:45:00,55.1,48.7,30.11,SSW,199,0.0,0.0,79,0.00,,SKC,0.00,VWS V14.01,2013-01-13 10:45:00,
2013-01-13 05:51:00,55.0,48.6,30.11,SSW,198,0.0,0.0,79,0.00,,SKC,0.00,VWS V14.01,2013-01-13 10:51:00,
2013-01-13 05:56:00,54.9,48.5,30.11,SSW,198,0.0,0.0,79,0.00,,SKC,0.00,VWS V14.01,2013-01-13 10:56:00,
2013-01-13 06:00:00,54.8,48.4,30.11,SSW,198,0.0,0.0,79,0.00,,SKC,0.00,VWS V14.01,2013-01-13 11:00:00,
2013-01-13 06:01:00,54.9,48.5,30.11,SSW,198,0.0,0.0,79,0.00,,SKC,0.00,VWS V14.01,2013-01-13 11:01:00,
2013-01-13 06:07:00,54.9,48.5,30.12,SSW,198,0.0,0.0,79,0.00,,SKC,0.00,VWS V14.01,2013-01-13 11:07:00,
2013-01-13 06:12:00,54.9,48.5,30.12,SSW,198,0.0,0.0,79,0.00,,SKC,0.00,VWS V14.01,2013-01-13 11:12:00,
2013-01-13 06:18:00,54.8,48.4,30.12,SSW,198,0.0,0.0,79,0.00,,SKC,0.00,VWS V14.01,2013-01-13 11:18:00,
2013-01-13 06:23:00,54.7,48.3,30.12,SSW,198,0.0,0.0,79,0.00,,SKC,0.00,VWS V14.01,2013-01-13 11:23:00,
2013-01-13 06:29:00,54.6,48.2,30.11,SSW,198,0.0,0.0,79,0.00,,SKC,0.00,VWS V14.01,2013-01-13 11:29:00,
2013-01-13 06:30:00,54.6,48.2,30.12,SSW,198,0.0,0.0,79,0.00,,SKC,0.00,VWS V14.01,2013-01-13 11:30:00,
2013-01-13 06:34:00,54.4,48.0,30.12,SSW,199,0.0,0.0,79,0.00,,SKC,0.00,VWS V14.01,2013-01-13 11:34:00,
2013-01-13 06:39:00,54.3,47.9,30.12,SSW,198,0.0,0.0,79,0.00,,SKC,0.00,VWS V14.01,2013-01-13 11:39:00,
2013-01-13 06:45:00,54.2,47.8,30.12,SSW,198,0.0,0.0,79,0.00,,SKC,0.00,VWS V14.01,2013-01-13 11:45:00,
2013-01-13 06:50:00,54.1,47.7,30.12,SSW,199,0.0,0.0,79,0.00,,SKC,0.00,VWS V14.01,2013-01-13 11:50:00,
2013-01-13 06:56:00,54.0,47.6,30.12,SSW,199,0.0,0.0,79,0.00,,SKC,0.00,VWS V14.01,2013-01-13 11:56:00,
2013-01-13 07:00:00,53.9,47.5,30.12,SSW,198,0.0,0.0,79,0.00,,SKC,0.00,VWS V14.01,2013-01-13 12:00:00,
2013-01-13 07:01:00,54.0,47.6,30.12,SSW,198,0.0,0.0,79,0.00,,SKC,0.00,VWS V14.01,2013-01-13 12:01:00,
2013-01-13 07:06:00,54.2,47.8,30.12,SSW,199,0.0,0.0,79,0.00,,SKC,0.00,VWS V14.01,2013-01-13 12:06:00,
2013-01-13 07:12:00,54.1,47.7,30.13,SSW,199,0.0,0.0,79,0.00,,SKC,0.00,VWS V14.01,2013-01-13 12:12:00,
2013-01-13 07:17:00,54.1,47.7,30.13,SSW,198,0.0,0.0,79,0.00,,SKC,0.00,VWS V14.01,2013-01-13 12:17:00,
2013-01-13 07:23:00,54.1,47.7,30.13,WSW,240,0.0,1.0,79,0.00,,SKC,0.00,VWS V14.01,2013-01-13 12:23:00,
2013-01-13 07:28:00,54.5,48.5,30.13,WSW,240,0.0,1.0,80,0.00,,SKC,0.00,VWS V14.01,2013-01-13 12:28:00,
2013-01-13 07:30:00,54.6,48.6,30.13,East,99,0.0,1.0,80,0.00,,SKC,0.00,VWS V14.01,2013-01-13 12:30:00,
2013-01-13 07:34:00,54.8,48.8,30.13,East,98,0.0,0.0,80,0.00,,SKC,0.00,VWS V14.01,2013-01-13 12:34:00,
2013-01-13 07:39:00,55.3,49.6,30.14,SSW,210,0.0,1.0,81,0.00,,SKC,0.00,VWS V14.01,2013-01-13 12:39:00,
2013-01-13 07:44:00,55.5,49.8,30.14,WSW,244,0.0,1.0,81,0.00,,SKC,0.00,VWS V14.01,2013-01-13 12:44:00,
2013-01-13 07:50:00,55.6,50.2,30.14,WSW,250,0.0,1.0,82,0.00,,SKC,0.00,VWS V14.01,2013-01-13 12:50:00,
2013-01-13 07:55:00,55.7,50.3,30.14,SSE,157,1.0,1.0,82,0.00,,SKC,0.00,VWS V14.01,2013-01-13 12:55:00,
2013-01-13 08:00:00,55.8,50.1,30.14,WSW,245,0.0,2.0,81,0.00,,SKC,0.00,VWS V14.01,2013-01-13 13:00:00,
2013-01-13 08:01:00,55.8,50.1,30.14,WSW,246,0.0,1.0,81,0.00,,SKC,0.00,VWS V14.01,2013-01-13 13:01:00,
2013-01-13 08:06:00,55.9,50.2,30.14,SSW,197,0.0,2.0,81,0.00,,SKC,0.00,VWS V14.01,2013-01-13 13:06:00,
2013-01-13 08:12:00,56.0,50.3,30.15,WSW,256,1.0,2.0,81,0.00,,SKC,0.00,VWS V14.01,2013-01-13 13:12:00,
2013-01-13 08:17:00,56.2,50.1,30.15,WSW,246,0.0,2.0,80,0.00,,SKC,0.00,VWS V14.01,2013-01-13 13:17:00,
2013-01-13 08:22:00,56.3,49.9,30.15,WSW,253,0.0,2.0,79,0.00,,SKC,0.00,VWS V14.01,2013-01-13 13:22:00,
2013-01-13 08:28:00,56.4,50.0,30.16,SW,214,0.0,2.0,79,0.00,,SKC,0.00,VWS V14.01,2013-01-13 13:28:00,
2013-01-13 08:30:00,56.4,50.0,30.16,SW,214,0.0,2.0,79,0.00,,SKC,0.00,VWS V14.01,2013-01-13 13:30:00,
2013-01-13 08:33:00,56.5,50.1,30.16,SW,214,0.0,0.0,79,0.00,,SKC,0.00,VWS V14.01,2013-01-13 13:33:00,
2013-01-13 08:39:00,56.6,50.2,30.16,West,264,0.0,0.0,79,0.00,,SKC,0.00,VWS V14.01,2013-01-13 13:39:00,
2013-01-13 08:44:00,56.8,50.4,30.16,WSW,255,0.0,1.0,79,0.00,,SKC,0.00,VWS V14.01,2013-01-13 13:44:00,
2013-01-13 08:50:00,56.9,50.5,30.17,NW,307,0.0,1.0,79,0.00,,SKC,0.00,VWS V14.01,2013-01-13 13:50:00,
2013-01-13 08:55:00,57.1,50.3,30.17,WNW,288,1.0,1.0,78,0.00,,SKC,0.00,VWS V14.01,2013-01-13 13:55:00,
2013-01-13 09:00:00,57.4,50.6,30.17,WNW,297,1.0,2.0,78,0.00,,SKC,0.00,VWS V14.01,2013-01-13 14:00:00,
2013-01-13 09:06:00,57.7,50.9,30.16,WNW,302,0.0,2.0,78,0.00,,SKC,0.00,VWS V14.01,2013-01-13 14:06:00,
2013-01-13 09:11:00,58.0,51.2,30.17,WSW,242,0.0,2.0,78,0.00,,SKC,0.00,VWS V14.01,2013-01-13 14:11:00,
2013-01-13 09:17:00,58.3,51.5,30.16,ESE,117,1.0,2.0,78,0.00,,SKC,0.00,VWS V14.01,2013-01-13 14:17:00,
2013-01-13 09:22:00,58.7,51.9,30.16,West,267,0.0,2.0,78,0.00,,SKC,0.00,VWS V14.01,2013-01-13 14:22:00,
2013-01-13 09:28:00,59.2,52.3,30.16,SW,221,1.0,5.0,78,0.00,,SKC,0.00,VWS V14.01,2013-01-13 14:28:00,
2013-01-13 09:30:00,59.3,52.5,30.16,SSW,197,0.0,5.0,78,0.00,,SKC,0.00,VWS V14.01,2013-01-13 14:30:00,
2013-01-13 09:33:00,59.5,53.3,30.16,WNW,293,0.0,2.0,80,0.00,,SKC,0.00,VWS V14.01,2013-01-13 14:33:00,
2013-01-13 09:38:00,59.8,53.6,30.16,WSW,246,1.0,2.0,80,0.00,,SKC,0.00,VWS V14.01,2013-01-13 14:38:00,
2013-01-13 09:44:00,60.1,54.9,30.16,ESE,103,1.0,3.0,83,0.00,,SKC,0.00,VWS V14.01,2013-01-13 14:44:00,
2013-01-13 09:49:00,60.4,55.9,30.16,ESE,117,1.0,3.0,85,0.00,,SKC,0.00,VWS V14.01,2013-01-13 14:49:00,
2013-01-13 09:55:00,60.8,56.3,30.16,NNE,15,2.0,3.0,85,0.00,,SKC,0.00,VWS V14.01,2013-01-13 14:55:00,
2013-01-13 10:00:00,61.3,57.4,30.17,WNW,302,0.0,1.0,87,0.00,,SKC,0.00,VWS V14.01,2013-01-13 15:00:00,
2013-01-13 10:06:00,61.7,58.1,30.17,West,277,1.0,3.0,88,0.00,,SKC,0.00,VWS V14.01,2013-01-13 15:06:00,
2013-01-13 10:11:00,62.1,58.5,30.16,West,281,4.0,4.0,88,0.00,,SKC,0.00,VWS V14.01,2013-01-13 15:11:00,
2013-01-13 10:16:00,62.5,58.9,30.17,West,271,0.0,4.0,88,0.00,,SKC,0.00,VWS V14.01,2013-01-13 15:16:00,
2013-01-13 10:22:00,62.8,58.9,30.17,West,281,0.0,4.0,87,0.00,,SKC,0.00,VWS V14.01,2013-01-13 15:22:00,
2013-01-13 10:27:00,62.8,58.9,30.17,West,266,1.0,4.0,87,0.00,,SKC,0.00,VWS V14.01,2013-01-13 15:27:00,
2013-01-13 10:30:00,62.8,58.9,30.16,WNW,284,2.0,4.0,87,0.00,,SKC,0.00,VWS V14.01,2013-01-13 15:30:00,
2013-01-13 10:33:00,62.8,58.9,30.16,WNW,291,3.0,6.0,87,0.00,,SKC,0.00,VWS V14.01,2013-01-13 15:33:00,
2013-01-13 10:38:00,62.9,59.0,30.16,NW,314,2.0,6.0,87,0.00,,SKC,0.00,VWS V14.01,2013-01-13 15:38:00,
2013-01-13 10:44:00,63.2,59.3,30.16,WNW,290,1.0,6.0,87,0.00,,SKC,0.00,VWS V14.01,2013-01-13 15:44:00,
2013-01-13 10:49:00,63.3,59.0,30.16,West,266,1.0,6.0,86,0.00,,SKC,0.00,VWS V14.01,2013-01-13 15:49:00,
2013-01-13 10:54:00,63.2,59.0,30.15,West,275,2.0,6.0,86,0.00,,SKC,0.00,VWS V14.01,2013-01-13 15:54:00,
2013-01-13 11:00:00,63.2,59.0,30.15,West,281,3.0,3.0,86,0.00,,SKC,0.00,VWS V14.01,2013-01-13 16:00:00,
2013-01-13 11:05:00,63.4,59.2,30.15,WNW,283,4.0,4.0,86,0.00,,SKC,0.00,VWS V14.01,2013-01-13 16:05:00,
2013-01-13 11:11:00,63.4,59.2,30.15,WNW,290,1.0,6.0,86,0.00,,SKC,0.00,VWS V14.01,2013-01-13 16:11:00,
2013-01-13 11:16:00,63.7,59.4,30.14,WNW,298,1.0,6.0,86,0.00,,SKC,0.00,VWS V14.01,2013-01-13 16:16:00,
2013-01-13 11:21:00,64.0,59.7,30.14,West,279,1.0,6.0,86,0.00,,SKC,0.00,VWS V14.01,2013-01-13 16:21:00,
2013-01-13 11:27:00,64.0,59.4,30.14,WNW,298,3.0,6.0,85,0.00,,SKC,0.00,VWS V14.01,2013-01-13 16:27:00,
2013-01-13 11:30:00,63.9,59.3,30.13,ENE,67,1.0,6.0,85,0.00,,SKC,0.00,VWS V14.01,2013-01-13 16:30:00,
2013-01-13 11:32:00,63.8,59.2,30.13,NW,319,1.0,3.0,85,0.00,,SKC,0.00,VWS V14.01,2013-01-13 16:32:00,
2013-01-13 11:38:00,64.0,59.7,30.13,WNW,299,0.0,3.0,86,0.00,,SKC,0.00,VWS V14.01,2013-01-13 16:38:00,
2013-01-13 11:43:00,64.2,59.6,30.13,West,272,2.0,4.0,85,0.00,,SKC,0.00,VWS V14.01,2013-01-13 16:43:00,
2013-01-13 11:49:00,64.3,59.7,30.13,West,278,0.0,4.0,85,0.00,,SKC,0.00,VWS V14.01,2013-01-13 16:49:00,
2013-01-13 11:54:00,64.6,59.7,30.12,NW,309,1.0,4.0,84,0.00,,SKC,0.00,VWS V14.01,2013-01-13 16:54:00,
2013-01-13 11:59:00,64.5,59.6,30.12,WNW,283,1.0,5.0,84,0.00,,SKC,0.00,VWS V14.01,2013-01-13 16:59:00,
2013-01-13 12:00:00,64.5,59.6,30.12,WNW,283,1.0,5.0,84,0.00,,SKC,0.00,VWS V14.01,2013-01-13 17:00:00,
2013-01-13 12:05:00,64.7,60.1,30.12,WSW,242,1.0,1.0,85,0.00,,SKC,0.00,VWS V14.01,2013-01-13 17:05:00,
2013-01-13 12:10:00,64.7,59.8,30.12,West,274,2.0,4.0,84,0.00,,SKC,0.00,VWS V14.01,2013-01-13 17:10:00,
2013-01-13 12:16:00,64.7,59.8,30.11,WNW,293,4.0,4.0,84,0.00,,SKC,0.00,VWS V14.01,2013-01-13 17:16:00,
2013-01-13 12:21:00,64.5,59.6,30.11,West,277,1.0,4.0,84,0.00,,SKC,0.00,VWS V14.01,2013-01-13 17:21:00,
2013-01-13 12:27:00,64.5,59.6,30.11,West,271,0.0,4.0,84,0.00,,SKC,0.00,VWS V14.01,2013-01-13 17:27:00,
2013-01-13 12:30:00,64.7,59.8,30.10,West,274,1.0,4.0,84,0.00,,SKC,0.00,VWS V14.01,2013-01-13 17:30:00,
2013-01-13 12:32:00,64.8,59.9,30.10,West,280,0.0,2.0,84,0.00,,SKC,0.00,VWS V14.01,2013-01-13 17:32:00,
2013-01-13 12:37:00,65.4,60.1,30.10,NW,314,2.0,3.0,83,0.00,,SKC,0.00,VWS V14.01,2013-01-13 17:37:00,
2013-01-13 12:43:00,66.0,60.3,30.10,NNE,22,2.0,4.0,82,0.00,,SKC,0.00,VWS V14.01,2013-01-13 17:43:00,
2013-01-13 12:48:00,66.3,60.3,30.10,WSW,243,1.0,4.0,81,0.00,,SKC,0.00,VWS V14.01,2013-01-13 17:48:00,
2013-01-13 12:54:00,66.2,60.2,30.10,WNW,300,0.0,4.0,81,0.00,,SKC,0.00,VWS V14.01,2013-01-13 17:54:00,
2013-01-13 12:59:00,66.0,60.0,30.09,WSW,242,0.0,4.0,81,0.00,,SKC,0.00,VWS V14.01,2013-01-13 17:59:00,
2013-01-13 13:00:00,66.0,60.0,30.09,West,266,0.0,4.0,81,0.00,,SKC,0.00,VWS V14.01,2013-01-13 18:00:00,
2013-01-13 13:04:00,66.3,60.3,30.09,NW,314,0.0,2.0,81,0.00,,SKC,0.00,VWS V14.01,2013-01-13 18:04:00,
2013-01-13 13:10:00,67.0,60.6,30.09,West,280,1.0,4.0,80,0.00,,SKC,0.00,VWS V14.01,2013-01-13 18:10:00,
2013-01-13 13:15:00,67.4,60.7,30.09,WNW,290,0.0,4.0,79,0.00,,SKC,0.00,VWS V14.01,2013-01-13 18:15:00,
2013-01-13 13:21:00,67.4,61.0,30.09,West,281,1.0,5.0,80,0.00,,SKC,0.00,VWS V14.01,2013-01-13 18:21:00,
2013-01-13 13:26:00,67.2,60.5,30.09,SSW,205,1.0,5.0,79,0.00,,SKC,0.00,VWS V14.01,2013-01-13 18:26:00,
2013-01-13 13:30:00,67.1,60.4,30.09,West,260,0.0,5.0,79,0.00,,SKC,0.00,VWS V14.01,2013-01-13 18:30:00,
2013-01-13 13:32:00,67.0,60.6,30.09,WNW,285,0.0,3.0,80,0.00,,SKC,0.00,VWS V14.01,2013-01-13 18:32:00,
2013-01-13 13:37:00,66.7,60.3,30.08,West,279,1.0,3.0,80,0.00,,SKC,0.00,VWS V14.01,2013-01-13 18:37:00,
2013-01-13 13:42:00,66.7,60.3,30.08,WSW,256,1.0,3.0,80,0.00,,SKC,0.00,VWS V14.01,2013-01-13 18:42:00,
2013-01-13 13:48:00,66.9,60.5,30.08,WNW,283,1.0,3.0,80,0.00,,SKC,0.00,VWS V14.01,2013-01-13 18:48:00,
2013-01-13 13:53:00,67.1,61.1,30.08,West,273,1.0,3.0,81,0.00,,SKC,0.00,VWS V14.01,2013-01-13 18:53:00,
2013-01-13 13:59:00,67.3,60.9,30.08,West,261,2.0,3.0,80,0.00,,SKC,0.00,VWS V14.01,2013-01-13 18:59:00,
2013-01-13 14:00:00,67.3,60.9,30.08,WNW,302,2.0,3.0,80,0.00,,SKC,0.00,VWS V14.01,2013-01-13 19:00:00,
2013-01-13 14:04:00,67.1,60.4,30.08,SSW,203,1.0,3.0,79,0.00,,SKC,0.00,VWS V14.01,2013-01-13 19:04:00,
2013-01-13 14:10:00,67.1,60.7,30.08,SW,224,1.0,4.0,80,0.00,,SKC,0.00,VWS V14.01,2013-01-13 19:10:00,
2013-01-13 14:15:00,67.4,60.7,30.08,WNW,291,3.0,4.0,79,0.00,,SKC,0.00,VWS V14.01,2013-01-13 19:15:00,
2013-01-13 14:20:00,67.5,60.8,30.08,West,263,3.0,4.0,79,0.00,,SKC,0.00,VWS V14.01,2013-01-13 19:20:00,
2013-01-13 14:26:00,67.9,60.4,30.08,WSW,256,3.0,4.0,77,0.00,,SKC,0.00,VWS V14.01,2013-01-13 19:26:00,
2013-01-13 14:30:00,68.0,60.5,30.09,WNW,302,1.0,5.0,77,0.00,,SKC,0.00,VWS V14.01,2013-01-13 19:30:00,
2013-01-13 14:31:00,68.1,61.0,30.08,SW,232,1.0,2.0,78,0.00,,SKC,0.00,VWS V14.01,2013-01-13 19:31:00,
2013-01-13 14:37:00,68.3,60.8,30.08,WNW,285,2.0,3.0,77,0.00,,SKC,0.00,VWS V14.01,2013-01-13 19:37:00,
2013-01-13 14:42:00,68.3,60.8,30.08,WSW,243,2.0,3.0,77,0.00,,SKC,0.00,VWS V14.01,2013-01-13 19:42:00,
2013-01-13 14:48:00,68.6,61.1,30.08,West,276,1.0,3.0,77,0.00,,SKC,0.00,VWS V14.01,2013-01-13 19:48:00,
2013-01-13 14:53:00,68.9,61.0,30.08,South,187,0.0,3.0,76,0.00,,SKC,0.00,VWS V14.01,2013-01-13 19:53:00,
2013-01-13 14:58:00,68.6,60.7,30.09,NW,309,1.0,5.0,76,0.00,,SKC,0.00,VWS V14.01,2013-01-13 19:58:00,
2013-01-13 15:00:00,68.5,60.7,30.09,WSW,245,2.0,5.0,76,0.00,,SKC,0.00,VWS V14.01,2013-01-13 20:00:00,
2013-01-13 15:04:00,68.3,60.5,30.09,SSE,147,0.0,6.0,76,0.00,,SKC,0.00,VWS V14.01,2013-01-13 20:04:00,
2013-01-13 15:09:00,68.2,60.3,30.09,West,263,1.0,6.0,76,0.00,,SKC,0.00,VWS V14.01,2013-01-13 20:09:00,
2013-01-13 15:15:00,68.3,60.5,30.09,West,270,0.0,6.0,76,0.00,,SKC,0.00,VWS V14.01,2013-01-13 20:15:00,
2013-01-13 15:20:00,68.4,60.5,30.09,South,186,2.0,6.0,76,0.00,,SKC,0.00,VWS V14.01,2013-01-13 20:20:00,
2013-01-13 15:26:00,68.6,60.7,30.09,ESE,122,0.0,6.0,76,0.00,,SKC,0.00,VWS V14.01,2013-01-13 20:26:00,
2013-01-13 15:30:00,68.6,60.7,30.09,West,266,1.0,6.0,76,0.00,,SKC,0.00,VWS V14.01,2013-01-13 20:30:00,
2013-01-13 15:31:00,68.6,60.7,30.09,West,278,0.0,2.0,76,0.00,,SKC,0.00,VWS V14.01,2013-01-13 20:31:00,
2013-01-13 15:36:00,68.5,60.6,30.09,WNW,284,0.0,2.0,76,0.00,,SKC,0.00,VWS V14.01,2013-01-13 20:36:00,
2013-01-13 15:42:00,68.1,60.6,30.09,West,273,0.0,4.0,77,0.00,,SKC,0.00,VWS V14.01,2013-01-13 20:42:00,
2013-01-13 15:47:00,67.8,60.7,30.08,West,280,1.0,4.0,78,0.00,,SKC,0.00,VWS V14.01,2013-01-13 20:47:00,
2013-01-13 15:53:00,67.5,60.4,30.09,WNW,293,1.0,4.0,78,0.00,,SKC,0.00,VWS V14.01,2013-01-13 20:53:00,
2013-01-13 15:58:00,67.4,60.3,30.08,West,278,0.0,4.0,78,0.00,,SKC,0.00,VWS V14.01,2013-01-13 20:58:00,
2013-01-13 16:00:00,67.4,60.7,30.08,NW,309,1.0,4.0,79,0.00,,SKC,0.00,VWS V14.01,2013-01-13 21:00:00,
2013-01-13 16:04:00,67.3,60.6,30.09,West,262,1.0,1.0,79,0.00,,SKC,0.00,VWS V14.01,2013-01-13 21:04:00,
2013-01-13 16:09:00,67.1,60.4,30.09,West,274,0.0,2.0,79,0.00,,SKC,0.00,VWS V14.01,2013-01-13 21:09:00,
2013-01-13 16:14:00,67.0,60.3,30.09,WNW,285,0.0,3.0,79,0.00,,SKC,0.00,VWS V14.01,2013-01-13 21:14:00,
2013-01-13 16:23:00,66.8,60.4,30.09,West,268,0.0,0.0,80,0.00,,SKC,0.00,VWS V14.01,2013-01-13 21:23:00,
2013-01-13 16:28:00,66.8,60.4,30.09,WNW,289,0.0,2.0,80,0.00,,SKC,0.00,VWS V14.01,2013-01-13 21:28:00,
2013-01-13 16:30:00,66.8,60.4,30.09,WNW,288,0.0,2.0,80,0.00,,SKC,0.00,VWS V14.01,2013-01-13 21:30:00,
2013-01-13 16:34:00,66.7,60.3,30.09,WNW,297,2.0,2.0,80,0.00,,SKC,0.00,VWS V14.01,2013-01-13 21:34:00,
2013-01-13 16:39:00,66.6,60.2,30.09,West,262,0.0,2.0,80,0.00,,SKC,0.00,VWS V14.01,2013-01-13 21:39:00,
2013-01-13 16:45:00,66.5,60.2,30.10,West,262,0.0,2.0,80,0.00,,SKC,0.00,VWS V14.01,2013-01-13 21:45:00,
2013-01-13 16:50:00,66.4,60.4,30.10,NW,309,0.0,2.0,81,0.00,,SKC,0.00,VWS V14.01,2013-01-13 21:50:00,
2013-01-13 16:55:00,66.2,60.2,30.10,WNW,288,0.0,2.0,81,0.00,,SKC,0.00,VWS V14.01,2013-01-13 21:55:00,
2013-01-13 17:00:00,66.1,60.1,30.09,WNW,288,0.0,2.0,81,0.00,,SKC,0.00,VWS V14.01,2013-01-13 22:00:00,
2013-01-13 17:01:00,66.1,60.5,30.10,WNW,288,0.0,0.0,82,0.00,,SKC,0.00,VWS V14.01,2013-01-13 22:01:00,
2013-01-13 17:06:00,65.9,60.3,30.10,WNW,288,0.0,1.0,82,0.00,,SKC,0.00,VWS V14.01,2013-01-13 22:06:00,
2013-01-13 17:12:00,65.6,60.0,30.10,WNW,288,0.0,1.0,82,0.00,,SKC,0.00,VWS V14.01,2013-01-13 22:12:00,
2013-01-13 17:17:00,65.4,59.8,30.10,WNW,288,0.0,1.0,82,0.00,,SKC,0.00,VWS V14.01,2013-01-13 22:17:00,
2013-01-13 17:23:00,65.2,59.6,30.09,WNW,288,0.0,1.0,82,0.00,,SKC,0.00,VWS V14.01,2013-01-13 22:23:00,
2013-01-13 17:28:00,64.9,59.6,30.10,WNW,288,0.0,1.0,83,0.00,,SKC,0.00,VWS V14.01,2013-01-13 22:28:00,
2013-01-13 17:30:00,64.8,59.5,30.09,WNW,288,0.0,1.0,83,0.00,,SKC,0.00,VWS V14.01,2013-01-13 22:30:00,
2013-01-13 17:33:00,64.5,59.6,30.09,WNW,288,0.0,0.0,84,0.00,,SKC,0.00,VWS V14.01,2013-01-13 22:33:00,
2013-01-13 17:39:00,64.2,59.3,30.09,WNW,288,0.0,0.0,84,0.00,,SKC,0.00,VWS V14.01,2013-01-13 22:39:00,
2013-01-13 17:44:00,63.9,59.3,30.09,WNW,288,0.0,0.0,85,0.00,,SKC,0.00,VWS V14.01,2013-01-13 22:44:00,
2013-01-13 17:50:00,63.5,58.9,30.09,WNW,288,0.0,0.0,85,0.00,,SKC,0.00,VWS V14.01,2013-01-13 22:50:00,
2013-01-13 17:55:00,63.1,58.8,30.09,WNW,288,0.0,0.0,86,0.00,,SKC,0.00,VWS V14.01,2013-01-13 22:55:00,
2013-01-13 18:00:00,62.8,58.6,30.09,WNW,288,0.0,0.0,86,0.00,,SKC,0.00,VWS V14.01,2013-01-13 23:00:00,
2013-01-13 18:01:00,62.7,58.5,30.09,WNW,288,0.0,0.0,86,0.00,,SKC,0.00,VWS V14.01,2013-01-13 23:01:00,
2013-01-13 18:06:00,62.4,58.2,30.09,WNW,288,0.0,0.0,86,0.00,,SKC,0.00,VWS V14.01,2013-01-13 23:06:00,
2013-01-13 18:12:00,62.1,58.2,30.09,WNW,288,0.0,0.0,87,0.00,,SKC,0.00,VWS V14.01,2013-01-13 23:12:00,
2013-01-13 18:17:00,61.9,58.0,30.09,WNW,288,0.0,0.0,87,0.00,,SKC,0.00,VWS V14.01,2013-01-13 23:17:00,
2013-01-13 18:22:00,61.7,57.8,30.09,WNW,288,0.0,0.0,87,0.00,,SKC,0.00,VWS V14.01,2013-01-13 23:22:00,
2013-01-13 18:28:00,61.6,57.7,30.09,WNW,288,0.0,0.0,87,0.00,,SKC,0.00,VWS V14.01,2013-01-13 23:28:00,
2013-01-13 18:30:00,61.5,57.6,30.09,WNW,288,0.0,0.0,87,0.00,,SKC,0.00,VWS V14.01,2013-01-13 23:30:00,
2013-01-13 18:33:00,61.3,57.4,30.09,WNW,288,0.0,0.0,87,0.00,,SKC,0.00,VWS V14.01,2013-01-13 23:33:00,
2013-01-13 18:39:00,61.1,57.2,30.09,WNW,288,0.0,0.0,87,0.00,,SKC,0.00,VWS V14.01,2013-01-13 23:39:00,
2013-01-13 18:44:00,60.8,56.9,30.09,WNW,288,0.0,0.0,87,0.00,,SKC,0.00,VWS V14.01,2013-01-13 23:44:00,
2013-01-13 18:50:00,60.6,56.7,30.09,WNW,288,0.0,0.0,87,0.00,,SKC,0.00,VWS V14.01,2013-01-13 23:50:00,
2013-01-13 18:55:00,60.5,56.6,30.10,WNW,288,0.0,0.0,87,0.00,,SKC,0.00,VWS V14.01,2013-01-13 23:55:00,
2013-01-13 19:00:00,60.4,56.5,30.09,WNW,288,0.0,0.0,87,0.00,,SKC,0.00,VWS V14.01,2013-01-14 00:00:00,
2013-01-13 19:06:00,60.3,56.4,30.09,WNW,288,0.0,0.0,87,0.00,,SKC,0.00,VWS V14.01,2013-01-14 00:06:00,
2013-01-13 19:11:00,60.2,56.0,30.09,WNW,288,0.0,0.0,86,0.00,,SKC,0.00,VWS V14.01,2013-01-14 00:11:00,
2013-01-13 19:17:00,60.1,55.9,30.09,WNW,288,0.0,0.0,86,0.00,,SKC,0.00,VWS V14.01,2013-01-14 00:17:00,
2013-01-13 19:22:00,59.9,55.7,30.09,WNW,288,0.0,0.0,86,0.00,,SKC,0.00,VWS V14.01,2013-01-14 00:22:00,
2013-01-13 19:28:00,59.7,55.5,30.08,WNW,288,0.0,0.0,86,0.00,,SKC,0.00,VWS V14.01,2013-01-14 00:28:00,
2013-01-13 19:30:00,59.6,55.4,30.08,WNW,288,0.0,0.0,86,0.00,,SKC,0.00,VWS V14.01,2013-01-14 00:30:00,
2013-01-13 19:33:00,59.5,55.3,30.08,WNW,288,0.0,0.0,86,0.00,,SKC,0.00,VWS V14.01,2013-01-14 00:33:00,
2013-01-13 19:39:00,59.4,54.9,30.08,WNW,288,0.0,0.0,85,0.00,,SKC,0.00,VWS V14.01,2013-01-14 00:39:00,
2013-01-13 19:44:00,59.2,54.7,30.09,WNW,288,0.0,0.0,85,0.00,,SKC,0.00,VWS V14.01,2013-01-14 00:44:00,
2013-01-13 19:50:00,59.1,54.6,30.08,WNW,288,0.0,0.0,85,0.00,,SKC,0.00,VWS V14.01,2013-01-14 00:50:00,
2013-01-13 19:56:00,59.0,54.2,30.08,WNW,288,0.0,0.0,84,0.00,,SKC,0.00,VWS V14.01,2013-01-14 00:56:00,
2013-01-13 20:00:00,59.0,54.2,30.08,WNW,288,0.0,0.0,84,0.00,,SKC,0.00,VWS V14.01,2013-01-14 01:00:00,
2013-01-13 20:02:00,59.0,54.2,30.08,WNW,288,0.0,0.0,84,0.00,,SKC,0.00,VWS V14.01,2013-01-14 01:02:00,
2013-01-13 20:07:00,58.8,54.0,30.08,WNW,288,0.0,0.0,84,0.00,,SKC,0.00,VWS V14.01,2013-01-14 01:07:00,
2013-01-13 20:12:00,58.7,53.9,30.08,WNW,288,0.0,0.0,84,0.00,,SKC,0.00,VWS V14.01,2013-01-14 01:12:00,
2013-01-13 20:18:00,58.8,53.3,30.08,WNW,288,0.0,0.0,82,0.00,,SKC,0.00,VWS V14.01,2013-01-14 01:18:00,
2013-01-13 20:24:00,59.0,52.8,30.08,WNW,288,0.0,0.0,80,0.00,,SKC,0.00,VWS V14.01,2013-01-14 01:24:00,
2013-01-13 20:29:00,58.9,53.4,30.08,WNW,288,0.0,0.0,82,0.00,,SKC,0.00,VWS V14.01,2013-01-14 01:29:00,
2013-01-13 20:30:00,58.9,53.4,30.08,WNW,288,0.0,0.0,82,0.00,,SKC,0.00,VWS V14.01,2013-01-14 01:30:00,
2013-01-13 20:35:00,58.8,53.0,30.09,WNW,288,0.0,0.0,81,0.00,,SKC,0.00,VWS V14.01,2013-01-14 01:35:00,
2013-01-13 20:41:00,58.9,52.4,30.08,WNW,288,0.0,0.0,79,0.00,,SKC,0.00,VWS V14.01,2013-01-14 01:41:00,
2013-01-13 20:47:00,58.9,53.1,30.09,WNW,288,0.0,0.0,81,0.00,,SKC,0.00,VWS V14.01,2013-01-14 01:47:00,
2013-01-13 20:52:00,58.7,53.2,30.08,WNW,288,0.0,0.0,82,0.00,,SKC,0.00,VWS V14.01,2013-01-14 01:52:00,
2013-01-13 20:58:00,58.4,53.3,30.08,WNW,288,0.0,0.0,83,0.00,,SKC,0.00,VWS V14.01,2013-01-14 01:58:00,
2013-01-13 21:00:00,58.4,53.3,30.08,WNW,288,0.0,0.0,83,0.00,,SKC,0.00,VWS V14.01,2013-01-14 02:00:00,
2013-01-13 21:04:00,58.1,53.0,30.08,WNW,288,0.0,0.0,83,0.00,,SKC,0.00,VWS V14.01,2013-01-14 02:04:00,
2013-01-13 21:10:00,57.8,52.7,30.08,WNW,288,0.0,0.0,83,0.00,,SKC,0.00,VWS V14.01,2013-01-14 02:10:00,
2013-01-13 21:16:00,57.6,52.2,30.08,WNW,288,0.0,0.0,82,0.00,,SKC,0.00,VWS V14.01,2013-01-14 02:16:00,
2013-01-13 21:21:00,57.5,52.1,30.08,WNW,288,0.0,0.0,82,0.00,,SKC,0.00,VWS V14.01,2013-01-14 02:21:00,
2013-01-13 21:27:00,57.4,51.6,30.08,WNW,288,0.0,0.0,81,0.00,,SKC,0.00,VWS V14.01,2013-01-14 02:27:00,
2013-01-13 21:30:00,57.4,51.6,30.08,WNW,288,0.0,0.0,81,0.00,,SKC,0.00,VWS V14.01,2013-01-14 02:30:00,
2013-01-13 21:32:00,57.5,51.4,30.08,WNW,288,0.0,0.0,80,0.00,,SKC,0.00,VWS V14.01,2013-01-14 02:32:00,
2013-01-13 21:38:00,57.6,51.1,30.08,WNW,288,0.0,0.0,79,0.00,,SKC,0.00,VWS V14.01,2013-01-14 02:38:00,
2013-01-13 21:43:00,57.8,51.3,30.09,WNW,288,0.0,0.0,79,0.00,,SKC,0.00,VWS V14.01,2013-01-14 02:43:00,
2013-01-13 21:49:00,57.7,51.6,30.08,WNW,288,0.0,0.0,80,0.00,,SKC,0.00,VWS V14.01,2013-01-14 02:49:00,
2013-01-13 21:54:00,57.7,51.6,30.09,WNW,288,0.0,0.0,80,0.00,,SKC,0.00,VWS V14.01,2013-01-14 02:54:00,
2013-01-13 21:59:00,57.6,51.5,30.09,WNW,288,0.0,0.0,80,0.00,,SKC,0.00,VWS V14.01,2013-01-14 02:59:00,
2013-01-13 22:00:00,57.6,51.5,30.09,WNW,288,0.0,0.0,80,0.00,,SKC,0.00,VWS V14.01,2013-01-14 03:00:00,
2013-01-13 22:05:00,57.6,51.1,30.09,WNW,288,0.0,0.0,79,0.00,,SKC,0.00,VWS V14.01,2013-01-14 03:05:00,
2013-01-13 22:10:00,57.9,51.1,30.09,WNW,288,0.0,0.0,78,0.00,,SKC,0.00,VWS V14.01,2013-01-14 03:10:00,
2013-01-13 22:16:00,58.1,51.3,30.09,WNW,288,0.0,0.0,78,0.00,,SKC,0.00,VWS V14.01,2013-01-14 03:16:00,
2013-01-13 22:21:00,58.2,51.4,30.09,WNW,288,0.0,0.0,78,0.00,,SKC,0.00,VWS V14.01,2013-01-14 03:21:00,
2013-01-13 22:26:00,58.2,51.7,30.09,WNW,288,0.0,0.0,79,0.00,,SKC,0.00,VWS V14.01,2013-01-14 03:26:00,
2013-01-13 22:30:00,58.2,51.7,30.09,WNW,288,0.0,0.0,79,0.00,,SKC,0.00,VWS V14.01,2013-01-14 03:30:00,
2013-01-13 22:32:00,58.1,51.6,30.09,WNW,288,0.0,0.0,79,0.00,,SKC,0.00,VWS V14.01,2013-01-14 03:32:00,
2013-01-13 22:37:00,57.9,52.1,30.09,WNW,288,0.0,0.0,81,0.00,,SKC,0.00,VWS V14.01,2013-01-14 03:37:00,
2013-01-13 22:43:00,57.6,51.8,30.09,WNW,288,0.0,0.0,81,0.00,,SKC,0.00,VWS V14.01,2013-01-14 03:43:00,
2013-01-13 22:48:00,57.4,51.6,30.09,WNW,288,0.0,0.0,81,0.00,,SKC,0.00,VWS V14.01,2013-01-14 03:48:00,
2013-01-13 22:54:00,57.3,51.2,30.09,WNW,288,0.0,0.0,80,0.00,,SKC,0.00,VWS V14.01,2013-01-14 03:54:00,
2013-01-13 22:59:00,57.2,51.1,30.09,WNW,288,0.0,0.0,80,0.00,,SKC,0.00,VWS V14.01,2013-01-14 03:59:00,
2013-01-13 23:00:00,57.2,51.1,30.09,WNW,288,0.0,0.0,80,0.00,,SKC,0.00,VWS V14.01,2013-01-14 04:00:00,
2013-01-13 23:04:00,57.0,51.2,30.09,WNW,288,0.0,0.0,81,0.00,,SKC,0.00,VWS V14.01,2013-01-14 04:04:00,
2013-01-13 23:10:00,56.9,51.1,30.09,WNW,288,0.0,0.0,81,0.00,,SKC,0.00,VWS V14.01,2013-01-14 04:10:00,
2013-01-13 23:15:00,56.8,50.7,30.09,WNW,288,0.0,0.0,80,0.00,,SKC,0.00,VWS V14.01,2013-01-14 04:15:00,
2013-01-13 23:21:00,56.9,50.5,30.09,WNW,288,0.0,0.0,79,0.00,,SKC,0.00,VWS V14.01,2013-01-14 04:21:00,
2013-01-13 23:26:00,57.0,50.6,30.09,WNW,288,0.0,0.0,79,0.00,,SKC,0.00,VWS V14.01,2013-01-14 04:26:00,
2013-01-13 23:30:00,57.1,50.7,30.09,WNW,288,0.0,0.0,79,0.00,,SKC,0.00,VWS V14.01,2013-01-14 04:30:00,
2013-01-13 23:32:00,57.1,50.7,30.09,WNW,288,0.0,0.0,79,0.00,,SKC,0.00,VWS V14.01,2013-01-14 04:32:00,
2013-01-13 23:37:00,57.0,50.6,30.09,WNW,288,0.0,0.0,79,0.00,,SKC,0.00,VWS V14.01,2013-01-14 04:37:00,
2013-01-13 23:43:00,57.1,50.3,30.09,WNW,288,0.0,0.0,78,0.00,,SKC,0.00,VWS V14.01,2013-01-14 04:43:00,
2013-01-13 23:49:00,57.2,50.4,30.09,WNW,288,0.0,0.0,78,0.00,,SKC,0.00,VWS V14.01,2013-01-14 04:49:00,
2013-01-13 23:54:00,57.3,50.5,30.09,WNW,288,0.0,0.0,78,0.00,,SKC,0.00,VWS V14.01,2013-01-14 04:54:00,
2013-01-13 23:59:00,57.5,50.7,30.09,WNW,288,0.0,0.0,78,0.00,,SKC,0.00,VWS V14.01,2013-01-14 04:59:00,